Location: Leo
(52.0556°N, 112.3605°W)
Time: 07:11:10
(UTC+00:00)

FO-29 - Pass Details

Date: 05 December 2023
Orbit: 799 x 1322 km, 98.6° (Epoch: 04 March)

Event Time Altitude Azimuth Distance (km) Brightness Sun altitude
Rises 09:10:48 0° 20° (NNE) 4,136 13.3 -53.4°
Reaches altitude 10° 09:13:54 10° 32° (NNE) 3,230 12.6 -53.1°
Enters shadow 09:16:06 18° 45° (NE) 2,695 12.1 -52.9°
